Toulouse, France

10:34 AM CEST on June 25, 2017 (GMT +0200)
Blagnac

Weather History for LFBO - January, 2014

Change the Weather History Date:

Wednesday, January 22, 2014

  Actual Average Record
Temperature  
Mean Temperature 40 °F -  
Max Temperature 48 °F 48 °F 59 °F (1997)
Min Temperature 31 °F 35 °F 24 °F (2011)
Degree Days  
Heating Degree Days 26    
Moisture  
Dew Point 38 °F    
Average Humidity 92    
Maximum Humidity 100    
Minimum Humidity 81    
Precipitation  
Precipitation 0.16 in 0.07 in - ()
Sea Level Pressure  
Sea Level Pressure 29.90 in    
Wind  
Wind Speed 4 mph ()    
Max Wind Speed 12 mph    
Max Gust Speed -    
Visibility 6.1 miles    
Events Rain    
Averages and records for this station are not official NWS values.
T = Trace of Precipitation, MM = Missing Value Source: Averaged Metar Reports

Daily Weather History Graph

Daily Weather History Graph

Search for Another Location

Airport or City:

Trip Planner

Search our weather history database for the weather conditions in past years. The results will help you decide how hot, cold, wet, or windy it might be!

Date:

Astronomy

Jan. 22, 2014 Rise Set
Actual Time 8:20 AM CET 5:52 PM CET
Civil Twilight 7:49 AM CET 6:23 PM CET
Nautical Twilight 7:14 AM CET 6:58 PM CET
Astronomical Twilight 6:40 AM CET 7:32 PM CET
Moon No Moon Rise 11:01 AM CET (1/22)
Length of Visible Light 10h 34m
Length of Day
9h 31m
Waning Gibbous, 68% of the Moon is Illuminated
Jan 22
Waning Gibbous
Jan 24
Last Quarter
Jan 30
New
Feb 6
First Quarter
Feb 15
Full

Hourly Weather History & Observations

Time (CET) Temp. Windchill Dew Point Humidity Pressure Visibility Wind Dir Wind Speed Gust Speed Precip Events Conditions
12:00 AM 37 °F - 33 °F 81% 29.90 in 11 mi ESE 2.3 mph - -   Clear
12:00 AM 37.4 °F - 33.8 °F 87% 29.86 in 6.2 mi ESE 2.3 mph - N/A   Unknown
12:30 AM 35.6 °F - 32.0 °F 87% 29.89 in 6.2 mi Calm Calm - N/A   Unknown
1:00 AM 36 °F - 34 °F 87% 29.90 in 6 mi NE 1.2 mph - -   Clear
1:00 AM 35.6 °F - 33.8 °F 93% 29.86 in 6.2 mi Variable 1.2 mph - N/A   Unknown
1:30 AM 35.6 °F - 32.0 °F 87% 29.86 in 6.2 mi Calm Calm - N/A   Unknown
2:00 AM 35 °F - 32 °F 86% 29.90 in 6 mi North 1.2 mph - -   Clear
2:00 AM 33.8 °F - 32.0 °F 93% 29.86 in 6.2 mi Variable 1.2 mph - N/A   Unknown
2:30 AM 32.0 °F - 30.2 °F 93% 29.86 in 6.2 mi ESE 2.3 mph - N/A   Unknown
3:00 AM 33 °F - 31 °F 91% 29.89 in 6 mi SSE 2.3 mph - -   Clear
3:00 AM 33.8 °F - 32.0 °F 93% 29.86 in 6.2 mi SSE 2.3 mph - N/A   Unknown
3:30 AM 33.8 °F 30.8 °F 32.0 °F 93% 29.86 in 6.2 mi SSW 3.5 mph - N/A   Unknown
4:00 AM 32 °F - 31 °F 95% 29.88 in 3 mi SSE 3.5 mph - -   Mist
4:00 AM 32.0 °F 28.7 °F 32.0 °F 100% 29.83 in 6.2 mi SSE 3.5 mph - N/A   Unknown
4:30 AM 32.0 °F - 32.0 °F 100% 29.83 in 3.1 mi SSE 2.3 mph - N/A   Mist
5:00 AM 33 °F - 31 °F 91% 29.87 in 4 mi SE 4.6 mph - -   Clear
5:00 AM 32.0 °F 27.5 °F 32.0 °F 100% 29.83 in 4.3 mi SE 4.6 mph - N/A   Unknown
5:30 AM 32.0 °F 28.7 °F 32.0 °F 100% 29.83 in 6.2 mi South 3.5 mph - N/A   Unknown
6:00 AM 33 °F - 32 °F 92% 29.88 in 6 mi South 2.3 mph - -   Clear
6:00 AM 33.8 °F - 32.0 °F 93% 29.83 in 6.2 mi South 2.3 mph - N/A   Unknown
6:30 AM 32.0 °F 27.5 °F 32.0 °F 100% 29.83 in 6.2 mi SSW 4.6 mph - N/A   Unknown
7:00 AM 33 °F - 32 °F 92% 29.88 in 7 mi South 3.5 mph - -   Overcast
7:00 AM 33.8 °F 30.8 °F 32.0 °F 93% 29.83 in 6.2 mi South 3.5 mph - N/A   Overcast
7:30 AM 33.8 °F 29.6 °F 32.0 °F 93% 29.83 in 6.2 mi SE 4.6 mph - N/A   Overcast
8:00 AM 35 °F - 33 °F 88% 29.88 in 9 mi SSW 3.5 mph - -   Mostly Cloudy
8:00 AM 35.6 °F 32.8 °F 32.0 °F 87% 29.86 in 6.2 mi SSW 3.5 mph - N/A   Overcast
8:30 AM 35.6 °F 32.8 °F 33.8 °F 93% 29.86 in 6.2 mi South 3.5 mph - N/A   Mostly Cloudy
9:00 AM 36 °F - 33 °F 87% 29.89 in 9 mi SSE 2.3 mph - -   Overcast
9:00 AM 35.6 °F - 33.8 °F 93% 29.86 in 6.2 mi Variable 2.3 mph - N/A   Overcast
9:30 AM 37.4 °F 32.8 °F 33.8 °F 87% 29.86 in 6.2 mi SSE 5.8 mph - N/A   Overcast
10:00 AM 37 °F - 34 °F 84% 29.90 in 9 mi South 4.6 mph - - Rain Light Rain
10:00 AM 37.4 °F 33.8 °F 33.8 °F 87% 29.86 in 6.2 mi South 4.6 mph - N/A   Light Drizzle
10:30 AM 37.4 °F 33.8 °F 33.8 °F 87% 29.86 in 6.2 mi South 4.6 mph - N/A Rain Rain
11:00 AM 39 °F - 36 °F 86% 29.91 in 4 mi SE 4.6 mph - - Rain Rain
11:00 AM 39.2 °F 35.9 °F 35.6 °F 87% 29.89 in 5.6 mi SE 4.6 mph - N/A Rain Light Rain
11:30 AM 39.2 °F 37.0 °F 37.4 °F 93% 29.89 in 6.2 mi SE 3.5 mph - N/A Rain Light Rain
12:00 PM 40 °F - 39 °F 93% 29.91 in 2 mi SSE 4.6 mph - - Rain Light Rain
12:00 PM 41.0 °F 38.0 °F 39.2 °F 93% 29.89 in 5.0 mi SSE 4.6 mph - N/A Rain Light Rain
12:30 PM 41.0 °F 36.4 °F 41.0 °F 100% 29.86 in 6.2 mi South 6.9 mph - N/A Rain Light Rain
1:00 PM 43 °F - 41 °F 90% 29.89 in 5 mi South 5.8 mph - - Rain Light Rain
1:00 PM 42.8 °F 39.3 °F 41.0 °F 93% 29.86 in 5.6 mi South 5.8 mph - N/A Rain Light Rain
1:30 PM 42.8 °F 39.3 °F 41.0 °F 93% 29.86 in 6.2 mi South 5.8 mph - N/A Rain Light Rain
2:00 PM 44 °F - 42 °F 92% 29.89 in 5 mi South 6.9 mph - - Rain Light Rain
2:00 PM 44.6 °F 40.7 °F 42.8 °F 93% 29.86 in 6.2 mi South 6.9 mph - N/A Rain Light Rain
2:30 PM 44.6 °F 40.7 °F 42.8 °F 93% 29.86 in 5.6 mi South 6.9 mph - N/A Rain Light Rain
3:00 PM 45 °F - 44 °F 93% 29.88 in 5 mi South 5.8 mph - - Rain Light Rain
3:00 PM 44.6 °F 41.4 °F 44.6 °F 100% 29.86 in 5.0 mi South 5.8 mph - N/A Rain Light Rain
3:30 PM 46.4 °F 45.2 °F 44.6 °F 93% 29.86 in - South 3.5 mph - N/A Rain Light Rain
4:00 PM 46 °F - 45 °F 93% 29.89 in 4 mi South 4.6 mph - - Rain Light Rain
4:00 PM 46.4 °F 44.3 °F 44.6 °F 93% 29.86 in 5.6 mi South 4.6 mph - N/A   Overcast
4:30 PM 46.4 °F 44.3 °F 44.6 °F 93% 29.89 in 5.0 mi South 4.6 mph - N/A   Overcast
5:00 PM 46 °F - 45 °F 96% 29.91 in 2 mi South 4.6 mph - -   Mist
5:00 PM 46.4 °F 44.3 °F 44.6 °F 93% 29.89 in 4.3 mi South 4.6 mph - N/A   Mostly Cloudy
5:30 PM 46.4 °F 45.2 °F 46.4 °F 100% 29.89 in 6.2 mi Variable 3.5 mph - N/A   Mostly Cloudy
6:00 PM 47 °F - 46 °F 96% 29.93 in 12 mi SW 3.5 mph - -   Overcast
6:00 PM 48.2 °F - 46.4 °F 93% 29.92 in 6.2 mi Variable 3.5 mph - N/A   Mostly Cloudy
6:30 PM 46.4 °F 45.2 °F 46.4 °F 100% 29.92 in 6.2 mi SSW 3.5 mph - N/A   Mostly Cloudy
7:00 PM 47 °F - 46 °F 97% 29.95 in 3 mi WSW 4.6 mph - - Rain Light Rain
7:00 PM 48.2 °F - 46.4 °F 93% 29.92 in 6.2 mi WSW 4.6 mph - N/A   Light Drizzle
7:30 PM 48.2 °F - 46.4 °F 93% 29.95 in 6.2 mi West 10.4 mph - N/A   Mostly Cloudy
8:00 PM 48 °F - 46 °F 89% 29.98 in 12 mi West 11.5 mph - - Rain Light Drizzle
8:00 PM 48.2 °F - 46.4 °F 93% 29.95 in 6.2 mi West 11.5 mph - N/A   Light Drizzle
8:30 PM 48.2 °F - 44.6 °F 87% 29.98 in 6.2 mi West 11.5 mph - N/A   Mostly Cloudy
9:00 PM 47 °F - 45 °F 91% 30.01 in 16 mi WNW 11.5 mph - - Rain Light Rain
9:00 PM 46.4 °F 41.1 °F 44.6 °F 93% 29.98 in 6.2 mi WNW 11.5 mph - N/A Rain Light Rain
9:30 PM 46.4 °F 41.5 °F 44.6 °F 93% 30.01 in 6.2 mi West 10.4 mph - N/A Rain Light Rain
10:00 PM 47 °F - 45 °F 92% 30.03 in 4 mi West 11.5 mph - - Rain Light Rain
10:00 PM 46.4 °F 41.1 °F 44.6 °F 93% 30.01 in 6.2 mi West 11.5 mph - N/A Rain Light Rain
10:30 PM 46.4 °F 41.5 °F 44.6 °F 93% 30.01 in 6.2 mi WNW 10.4 mph - N/A   Mostly Cloudy
11:00 PM 47 °F - 45 °F 89% 30.05 in 22 mi WNW 11.5 mph - -   Clear
11:00 PM 46.4 °F 41.1 °F 44.6 °F 93% 30.04 in 6.2 mi WNW 11.5 mph - N/A   Overcast
11:30 PM 46.4 °F 41.9 °F 44.6 °F 93% 30.04 in 6.2 mi WNW 9.2 mph - N/A Rain Light Rain